Flag for Romania Weather past 2 weeks in Cluj-Napoca, Romania

Now
39 °F

Partly sunny.


Feels Like: 39 °F
Forecast: 26 / 34 °F
Wind: 2 mph from East

Location: Cluj Airport-Napoca

Current Time: Dec 26, 2014 at 4:33:04 PM

Latest Report: Dec 26, 2014 at 4:00 PM


Visibility: N/A

Pressure: 30.04 "Hg

Humidity: 75%

Dew point: 32 °F

Location of Cluj-NapocaLocation

Historic Weather in Cluj-Napoca — Graph

°F

Cluj-Napoca temperature yesterday

Maximum temperature yesterday: 41 °F (at 2:00 PM)
Minimum temperature yesterday: 25 °F (at 6:30 AM)
Average temperature yesterday: 33 °F

Past Weeks' High & Low Weather Summary

 TemperatureHumidityPressure
High52 °F (Dec 23, 11:00 AM)100% (Dec 11, 3:00 PM)30.30 "Hg (Dec 11, 3:00 PM)
Low25 °F (Dec 25, 6:30 AM)62% (Dec 20, 4:00 PM)29.83 "Hg (Dec 17, 6:00 AM)
Average38 °F94%30.10 "Hg
* Reported Dec 11 3:00 PM — Dec 26 3:30 PM, Cluj-Napoca, Weather by CustomWeather, © 2014

Note: Actual official high and low records may vary slightly from our data, if they occured in-between our weather recording intervals... More about our weather records

Advertising

Cluj-Napoca weather history for previous 24 hours

 ConditionsComfort  
Time TempWeatherWind HumidityBarometerVisibility
3:30 PM
Dec 26
39 °FPartly sunny.2 mph75%30.04 "HgN/A
3:00 PM39 °FPassing clouds.2 mph75%30.04 "HgN/A
2:30 PM39 °FPassing clouds.5 mph70%30.04 "HgN/A
2:00 PM39 °FPassing clouds.7 mph70%30.04 "HgN/A
1:30 PM39 °FScattered clouds.9 mph70%30.04 "HgN/A
1:00 PM39 °FPartly sunny.5 mph70%30.04 "HgN/A
12:30 PM39 °FPartly sunny.5 mph70%30.07 "HgN/A
12:00 PM39 °FScattered clouds.5 mph70%30.07 "HgN/A
11:30 AM37 °FScattered clouds.5 mph75%30.07 "HgN/A
11:00 AM37 °FPassing clouds.5 mph81%30.07 "HgN/A
10:30 AM36 °FSunny.5 mph87%30.09 "Hg10 mi
10:00 AM36 °FSunny.7 mph81%30.09 "Hg10 mi
9:30 AM36 °FSunny.7 mph81%30.09 "Hg10 mi
9:00 AM34 °FSunny.7 mph93%30.09 "Hg10 mi
8:30 AM36 °FSunny.7 mph87%30.09 "Hg10 mi
8:00 AM34 °FClear.2 mph93%30.07 "Hg10 mi
7:30 AM34 °FClear.7 mph93%30.07 "Hg10 mi
7:00 AM37 °FClear.7 mph75%30.07 "Hg10 mi
6:30 AM36 °FClear.5 mph81%30.07 "Hg10 mi
6:00 AM37 °FClear.5 mph75%30.07 "Hg10 mi
5:30 AM37 °FClear.2 mph81%30.07 "Hg10 mi
4:00 AM37 °FPassing clouds.12 mph87%30.04 "HgN/A
3:00 AM37 °FPassing clouds.9 mph93%30.07 "HgN/A
2:00 AM39 °FPassing clouds.12 mph87%30.07 "HgN/A
1:00 AM37 °FPassing clouds.7 mph87%30.04 "HgN/A
12:00 AM34 °FPassing clouds.5 mph100%30.04 "HgN/A
11:00 PM
Dec 25
34 °FClear.No wind100%30.04 "Hg10 mi
10:30 PM36 °FClear.2 mph100%30.04 "Hg10 mi
10:00 PM34 °FClear.7 mph100%30.04 "Hg10 mi
9:30 PM37 °FClear.2 mph100%30.04 "Hg10 mi
9:00 PM34 °FClear.No wind100%30.04 "Hg10 mi
8:30 PM32 °FClear.5 mph100%30.04 "Hg10 mi
8:00 PM34 °FClear.No wind100%30.04 "Hg10 mi
7:30 PM36 °FClear.5 mph100%30.07 "Hg10 mi
7:00 PM36 °FPassing clouds.2 mph100%30.07 "Hg4 mi
6:30 PM37 °FPassing clouds.No wind100%30.04 "HgN/A
6:00 PM36 °FPassing clouds.No wind100%30.04 "HgN/A
5:30 PM37 °FPassing clouds.No wind100%30.04 "HgN/A
5:00 PM37 °FPassing clouds.2 mph100%30.04 "HgN/A
4:30 PM37 °FPartly sunny.5 mph100%30.04 "HgN/A
4:00 PM39 °FPartly sunny.No wind93%30.04 "HgN/A
Weather by CustomWeather, © 2014

See weather overviewHow to use our weather pages